Location: Caltech
(34.1382°N, 118.1253°W)
Time: 18:18:39
(UTC-07:00)

Iridium 12 - Visible Passes

Search period start: 26 May 2018 00:00
Search period end: 05 June 2018 00:00
Orbit: 761 x 765 km, 86.4° (Epoch: 26 May)

Date Brightness Start Highest point End Pass type
(mag) Time Alt. Az. Time Alt. Az. Time Alt. Az.
26 May 5.9 21:57:56 42° ESE 21:58:29 43° E 22:03:19 10° NNE visible
26 May 7.7 23:38:05 16° W 23:39:03 17° WNW 23:42:19 10° NW visible
27 May 6.9 21:19:52 19° E 21:20:55 20° E 21:24:36 10° NE visible
27 May 6.7 23:00:00 32° WSW 23:01:00 35° W 23:05:43 10° NNW visible
28 May 5.5 22:21:54 53° SSW 22:23:07 79° W 22:28:16 10° N visible
29 May 5.8 21:43:47 35° SE 21:45:22 47° E 21:50:18 10° NNE visible
29 May 7.9 23:23:55 12° WSW 23:26:00 15° WNW 23:28:59 10° NW visible
30 May 6.8 21:05:39 17° ESE 21:07:47 22° E 21:11:41 10° NNE visible
30 May 6.9 22:45:47 23° SW 22:47:56 32° W 22:52:32 10° NNW visible
31 May 5.6 22:07:37 32° SSW 22:10:01 72° W 22:15:10 10° N visible
01 Jun 5.7 21:29:25 24° SSE 21:32:16 52° E 21:37:15 10° NNE visible
01 Jun 8.0 23:10:20 10° WSW 23:12:57 14° WNW 23:15:35 10° NW visible
02 Jun 6.7 20:51:12 13° SE 20:54:40 24° E 20:58:43 10° NNE visible
02 Jun 7.1 22:31:19 14° SW 22:34:52 30° W 22:39:21 10° NNW visible
03 Jun 5.8 21:53:04 18° SSW 21:56:56 66° W 22:02:03 10° N visible
04 Jun 5.6 21:14:47 14° SSE 21:19:09 57° E 21:24:12 10° N visible
04 Jun 8.1 22:57:41 10° WSW 22:59:55 13° WNW 23:02:08 10° NW visible
